WESTFORD NEEDLES, 2367

Orbit data source: Space-Track

WESTFORD NEEDLES, 2367 is space debris originally from a launch on Thu, 09 May 1963 UTC launched from the Air Force Western Test Range (AFWTR). Debris objects in space refer to the collection of defunct objects orbiting the Earth. Examples of debris include non-operational satellites, rocket bodies, and fragments generated from explosions, collisions, or faulty payload assembly.

Loading next visibility...
Identifier
2367, 1963-014S
Orbit
Active
Country
Flag of USUS
Related business
Manufacturer
Unknown
Mission
Spacecraft
Bus & Motor
Unknown
Mass
Unknown
Launch date (UTC)
1963-05-09 (63 years ago)
Launch vehicle
Unknown
Launch site
Air Force Western Test Range (AFWTR)
Object type
Payload
Rocket body
Debris
Shape & HBR
Unknown shape, 0.2 m
Radar Cross Section
Medium (>0.1 m² and <1 m²)

Expand to show TLE details & history
Last TLE update: 8 hours ago

TLE from 8 hours ago
0 WESTFORD NEEDLES
1  2367U 63014S   26167.09566691  .00063705  00000-0  44399-1 0  9997
2  2367  84.2469  59.5568 2908184 102.8657 290.8987  9.06884775 11898
Epoch: 2026-06-16T02:17Z
TLE epoch observation values (Epoch: 2026-06-16T02:17:45.621Z)
Latitude
-0.00002°
Longitude
120.74409°
Altitude
3,126.85 km
Speed
6.547 km/s
True Right ascension
03h 58m 13s
True Declination
0° 00' 00"
Sunlit
Object was in daylight at epoch
Visualization orbit readout
Latitude
Unknown
Longitude
Unknown
Altitude
Unknown
Speed
Unknown
Apparent Right ascension
Unknown
Apparent Declination
Unknown
Sunlit
N/A
Visualization observer readout
Local Sidereal Time
20:44:17
Azimuth
Unknown
Elevation
Unknown
Doppler factor
Unknown
Orbital elements
Apogee altitude
6,156.746 km
Perigee altitude
508.586 km
Semi-major axis
9,710.803 km
Eccentricity
0.29082
Inclination
84.2469°
RAAN
59.5568°
Arg. of periapsis
102.8657°
True anomaly
257.23567°
Mean anomaly
290.8987°
Eccentric anomaly
274.28256°
Mean motion
2.26809 °/min
Orbital period
158.72 mins
BSTAR
0.044399

Documentation

Showing up to 5 results
|